Lapse_Rate
3.9 3.2 3.5 3.4 2.7 2.2 2.5 1.7 0.7 0.4 0.9 1.0 1.1 1.1 0.8 1.8 2.2 3.0 3.0 3.1 3.0 3.3 3.4 3.0 2.5 1.9 2.2 1.6 0.7 0.2 0.8 -0.2 -0.9 -0.3 -0.8 -1.4 -1.1 -0.4 -0.0 0.6 0.8 1.7 2.5
1.4 2.7 3.7 3.8 3.1 2.2 1.0 1.0 1.0 1.0 0.5 1.0 0.4 1.2 1.4 1.3 2.4 2.4 2.5 3.5 3.3 3.5 3.3 2.5 2.2 1.8 1.0 0.8 0.4 0.2 -0.7 -1.2 -2.2 -0.9 -1.3 0.8 1.0 0.1 0.6 0.3 1.2 0.4 1.7
2.0 1.4 1.3 2.0 1.5 3.0 1.1 0.5 0.1 0.1 0.6 1.4 1.8 0.4 1.0 0.7 1.7 2.2 2.9 2.5 3.1 3.0 3.0 1.9 1.8 1.3 1.3 0.9 -0.3 -0.5 -0.0 -1.5 -2.5 -2.2 -0.8 -0.7 0.5 -0.9 -0.3 1.1 0.3 0.6 0.5
0.5 0.5 1.7 -0.9 1.6 2.7 3.3 1.1 0.8 0.5 -0.2 1.4 1.7 1.5 1.5 1.4 0.7 2.2 2.4 2.5 2.8 2.6 2.1 1.8 1.6 1.1 0.2 0.2 -0.6 -1.3 -1.3 -2.0 -1.7 -2.5 -1.8 -2.1 -1.2 0.7 1.5 0.7 0.8 0.9 2.8
0.9 1.0 1.0 0.7 -1.1 1.7 2.1 0.1 -0.5 0.2 0.2 0.2 1.6 1.4 2.2 2.4 2.3 2.8 2.2 2.1 1.0 1.8 1.6 1.7 1.3 0.7 0.2 -0.7 -0.7 -1.7 -2.1 -2.3 -2.6 -2.4 -2.5 -1.6 -1.8 -1.1 1.0 1.2 1.1 1.4 0.8
2.0 1.2 1.3 1.4 -1.4 -1.2 1.3 0.4 0.7 -1.1 -1.5 -0.6 1.3 1.2 1.6 2.5 2.2 2.5 1.4 1.9 1.3 1.4 2.0 1.8 1.3 0.8 -0.4 -0.5 -1.1 -1.8 -1.8 -2.3 -2.4 -2.3 -1.9 -1.2 -0.1 0.2 1.1 1.7 0.5 0.3 0.4
1.8 1.7 1.5 0.8 1.2 -1.4 -0.0 0.2 -0.3 -1.5 -1.7 -0.8 0.7 1.1 1.7 2.6 1.5 1.8 0.9 0.7 0.8 1.3 1.8 1.6 0.5 0.8 -0.1 -0.7 -1.4 -1.9 -2.0 -2.3 -2.0 -1.7 -1.6 -0.8 0.6 1.4 2.1 2.6 3.0 3.2 1.3
4.1 2.3 2.2 1.1 0.4 -0.0 0.0 1.2 0.9 0.0 -1.1 -0.4 -0.4 1.3 3.0 2.5 1.5 1.2 1.1 0.7 0.9 1.4 0.5 0.7 0.5 0.7 0.1 -0.4 -1.0 -1.7 -2.2 -1.9 -2.1 -1.8 -0.7 -0.7 0.5 1.9 2.8 3.3 3.1 3.2 2.9
6.5 3.7 2.2 1.9 2.0 1.9 0.0 2.7 1.2 1.0 -0.4 -1.3 -0.3 2.4 2.6 2.8 1.3 1.0 0.8 0.7 0.8 -0.5 -0.6 0.3 0.6 0.9 0.3 -0.2 -0.7 -1.0 -1.6 -1.5 -1.3 -1.2 0.7 0.6 0.8 1.0 1.1 1.8 2.3 3.3 4.0
6.5 5.1 5.0 3.6 2.4 2.6 2.2 1.9 3.4 2.1 1.0 -0.1 0.4 2.4 2.3 2.6 1.7 0.2 -0.6 -0.1 -0.6 -0.8 -1.2 -0.4 0.9 1.0 0.7 0.2 -0.2 -0.4 -0.6 -0.0 -0.4 0.8 1.1 1.0 0.8 0.2 0.1 0.7 1.1 1.4 2.6
6.7 6.5 6.2 5.3 4.4 3.4 1.8 2.0 2.8 2.0 2.8 3.0 2.5 4.1 5.4 2.7 1.0 -0.1 -0.6 -0.4 -0.5 -1.3 -0.9 0.0 0.6 1.2 1.2 0.9 0.8 0.8 0.8 1.0 1.1 1.1 1.3 1.3 1.2 0.4 0.0 -0.1 0.0 -0.0 0.8
5.9 6.6 6.5 5.7 3.5 4.0 2.7 1.4 1.9 2.8 2.8 3.1 3.8 5.5 4.1 3.0 0.3 -1.1 -0.9 -1.2 -1.6 -1.3 -0.3 0.8 1.3 1.6 2.0 1.8 1.7 1.9 1.6 1.2 1.7 1.5 2.0 1.8 2.6 0.0 -0.2 -0.6 -0.5 -0.5 -0.4
6.3 6.5 6.0 6.4 5.8 4.0 1.7 0.9 2.7 3.3 4.2 4.6 4.9 5.0 3.0 2.8 -0.0 -1.3 -2.2 -1.2 -0.0 0.6 2.1 2.6 2.6 3.0 3.3 3.4 3.1 2.5 1.9 2.0 2.4 2.4 2.5 3.2 2.6 0.9 -0.7 -0.9 -0.7 -0.5 0.5
6.5 6.8 6.5 5.4 5.3 4.1 0.4 1.0 3.6 4.3 5.2 5.6 5.2 4.6 3.5 2.8 -0.2 -2.3 -2.1 -0.0 0.6 1.8 1.5 1.8 1.6 1.8 0.8 2.9 2.8 3.2 2.8 2.8 2.7 2.5 2.7 3.2 2.6 0.6 -0.3 -0.4 -0.5 -0.4 -0.8
6.8 7.0 7.1 6.5 5.4 1.7 1.8 0.9 3.2 4.8 5.4 4.8 4.5 4.4 3.0 2.1 0.2 0.0 0.3 1.0 1.3 1.9 1.2 1.0 2.2 2.7 3.5 3.7 3.0 2.4 2.4 3.3 2.9 1.6 2.4 3.0 2.6 1.2 0.3 -0.5 -0.6 -0.5 -0.7
6.9 7.2 7.1 5.6 6.6 4.8 2.6 1.5 1.2 1.5 2.0 2.7 3.6 3.1 2.1 2.4 1.6 1.1 0.8 1.0 0.9 0.8 1.0 1.8 1.4 2.5 3.2 1.5 2.4 2.8 3.3 3.3 2.8 2.7 3.1 2.5 2.3 0.9 0.6 0.8 1.3 1.0 -0.1
6.7 6.9 6.8 7.1 5.9 6.1 5.0 1.8 1.4 0.5 2.4 3.3 2.4 1.8 1.0 0.6 0.8 0.5 0.6 0.5 0.4 1.1 2.2 2.4 2.8 2.3 2.3 2.1 2.2 2.5 2.5 3.4 2.7 3.6 2.4 1.6 1.3 0.1 0.0 0.4 0.9 0.9 1.9
5.7 5.3 5.6 5.8 5.7 5.4 4.4 2.7 1.5 0.6 1.4 3.2 3.1 2.2 1.9 1.0 0.3 0.4 0.6 0.4 1.5 1.7 2.0 2.4 2.3 2.4 2.2 1.8 1.8 2.6 3.6 3.2 3.1 3.5 1.8 1.3 0.2 0.2 0.1 0.3 0.5 0.3 0.5
5.1 5.4 5.8 6.3 6.5 5.5 4.8 4.8 2.3 1.1 1.2 1.4 1.0 1.4 1.5 0.9 0.6 0.6 0.6 1.9 1.8 2.2 1.8 1.4 1.8 1.9 2.2 2.4 2.4 3.0 3.2 3.1 3.7 2.0 1.7 0.6 0.0 1.0 1.3 0.4 -0.9 -0.9 -0.2
4.9 4.7 4.9 5.6 5.9 5.0 3.6 3.9 3.8 1.6 0.5 0.3 0.2 1.7 2.1 1.3 1.0 0.5 1.3 2.9 2.8 1.5 2.0 2.8 2.9 2.6 1.8 2.5 2.4 3.0 3.0 3.8 2.0 1.3 1.0 1.0 0.0 0.8 1.1 0.6 -0.2 -1.4 -0.8
4.4 4.3 4.0 4.8 5.2 5.2 3.8 2.6 4.0 4.0 0.5 -0.4 -1.1 0.2 2.0 1.8 1.4 1.7 2.3 2.9 2.6 2.2 2.8 2.8 3.0 3.3 2.9 3.2 3.1 3.0 2.7 2.4 1.1 0.7 0.3 -0.4 0.8 1.3 2.1 2.0 1.2 0.8 -0.3
4.4 4.2 3.9 4.2 4.0 4.4 2.8 1.3 2.7 4.1 4.0 0.8 -1.4 0.1 1.6 2.0 1.9 2.0 2.8 3.4 2.7 2.8 3.0 2.6 3.4 3.3 2.8 2.5 2.6 2.6 2.7 1.6 0.9 0.7 0.2 -0.0 1.5 2.4 2.4 1.1 2.2 1.8 -0.1
4.5 4.4 3.6 3.4 3.4 3.6 2.5 0.8 1.6 4.0 2.6 0.7 -0.2 0.3 1.6 1.5 2.4 2.8 3.2 4.1 3.6 2.8 3.3 4.0 3.7 2.8 2.3 2.3 2.8 2.0 2.4 1.2 0.7 0.7 0.5 0.9 2.3 2.9 1.8 2.8 2.4 0.7 0.1
4.2 4.4 3.4 3.0 3.5 2.1 0.6 1.1 0.6 2.1 2.5 1.7 1.1 1.9 2.0 2.3 3.6 4.0 3.6 3.8 3.9 4.1 4.2 4.1 3.1 2.0 2.0 1.9 2.1 1.8 1.6 1.8 0.9 0.6 1.2 0.6 0.2 0.3 1.2 1.0 1.1 0.8 0.2
4.0 3.7 2.9 3.7 2.3 0.8 0.5 -0.5 0.5 2.6 1.3 0.5 0.5 1.8 2.2 3.1 4.1 4.4 4.4 4.4 4.5 3.8 3.7 3.5 2.3 2.2 2.6 2.6 2.3 1.6 1.6 1.1 0.5 0.1 -0.2 -0.2 -0.1 0.6 0.9 0.3 0.3 0.5 0.8
4.3 4.6 2.7 1.6 1.1 1.3 0.7 -0.1 0.4 3.0 1.4 0.8 1.6 2.4 2.7 3.0 3.5 3.7 3.7 3.2 3.8 3.3 2.7 2.4 2.5 2.5 2.9 2.8 2.4 2.8 2.3 1.7 1.0 0.7 0.7 0.1 0.3 0.9 0.3 0.1 -0.1 0.3 0.4
Wind_Speed
23 21 22 20 18 15 16 18 18 18 13 12 12 12 14 10 9 9 13 16 16 16 13 6 6 6 7 7 6 4 4 2 1 3 2 2 1 2 2 3 4 6 7
10 16 20 21 20 19 19 17 19 18 17 14 14 10 10 8 9 7 9 16 16 17 12 10 9 9 6 7 6 5 3 2 1 3 2 1 3 2 1 1 3 4 6
13 9 13 19 22 21 18 20 21 22 20 18 11 3 4 3 5 9 10 11 16 18 15 11 10 9 9 9 7 6 7 4 1 2 4 2 4 1 1 1 1 4 3
9 9 8 9 18 23 22 21 21 22 20 20 16 20 15 15 14 11 8 9 12 12 14 13 11 11 7 9 7 5 4 5 5 1 2 3 4 3 3 2 2 4 2
10 11 10 9 14 15 18 21 21 20 19 21 21 16 17 13 9 9 11 11 8 10 11 12 12 11 8 7 9 7 7 4 4 3 3 2 3 3 2 3 3 2 2
10 10 10 9 7 10 12 10 13 18 20 21 23 23 23 17 11 13 10 10 8 8 10 12 12 11 10 10 8 6 7 5 5 3 4 3 3 2 2 1 2 3 3
10 11 10 8 8 8 12 13 16 19 20 22 23 23 23 20 17 15 13 14 10 8 12 12 11 9 10 9 9 7 6 6 5 5 4 3 3 3 2 3 1 2 3
13 9 9 8 9 9 12 15 17 21 18 20 24 21 21 14 13 15 11 11 12 11 10 10 9 10 11 10 9 6 5 6 5 7 5 4 3 2 2 3 3 1 2
20 16 14 13 12 11 10 15 19 22 21 25 20 20 19 19 17 16 13 10 9 8 12 13 11 11 12 12 11 7 6 6 5 5 5 4 3 3 4 3 2 3 1
17 14 13 12 10 12 13 13 20 24 25 22 20 19 21 18 16 14 14 14 12 14 15 14 13 11 10 10 10 8 7 7 4 4 6 5 4 5 4 3 3 2 3
19 18 17 18 18 15 14 16 18 22 20 19 19 19 17 17 15 15 16 15 13 15 16 15 15 14 13 12 10 10 10 10 7 5 8 7 5 4 3 3 3 2 1
16 17 20 17 13 16 18 17 15 18 20 19 19 18 15 16 15 15 16 15 15 15 16 16 16 15 12 10 12 11 10 11 9 8 8 8 4 5 4 3 4 2 2
20 20 19 16 17 17 17 13 11 13 14 16 17 16 15 16 15 14 14 14 13 13 11 11 12 12 9 8 7 9 9 10 10 9 9 6 4 3 3 3 2 0 1
19 19 17 16 18 18 9 7 6 6 11 13 15 16 16 16 14 12 12 13 12 13 13 12 14 13 19 15 13 8 8 8 8 8 8 5 4 5 5 3 1 1 2
20 19 19 17 14 9 10 7 6 5 8 12 14 15 12 13 13 12 12 12 13 12 14 17 14 14 9 9 14 16 11 8 9 7 6 5 5 6 5 3 2 1 1
17 17 18 19 18 13 11 7 7 4 5 7 9 9 11 13 13 14 14 14 15 16 18 17 19 18 10 19 14 12 12 9 7 6 5 5 7 6 5 3 1 0 2
16 17 17 16 16 16 12 10 9 7 8 9 11 12 13 13 13 14 15 16 18 18 18 18 18 15 15 25 20 15 9 8 7 5 5 4 2 4 3 2 3 4 5
17 17 16 18 18 17 13 8 8 10 11 11 10 11 12 13 14 16 16 17 17 18 17 17 16 15 12 23 21 17 11 7 6 6 5 5 4 3 3 1 3 4 4
13 13 14 17 19 17 13 14 10 11 12 13 14 14 15 16 17 17 18 17 17 17 17 17 18 18 15 24 22 16 9 8 7 6 4 5 5 5 2 2 3 4 4
11 14 16 16 16 16 14 16 12 12 14 15 15 13 14 15 16 18 18 15 16 16 15 15 15 20 15 23 22 17 9 9 7 5 4 8 5 5 5 4 4 3 4
12 14 14 13 14 14 12 15 14 16 19 11 13 14 15 16 17 18 16 17 17 16 17 17 14 14 14 15 21 19 10 7 7 6 5 3 7 5 6 7 4 4 2
13 13 12 13 15 9 9 15 15 20 12 12 14 16 17 14 15 20 18 18 18 18 16 17 14 11 13 19 17 17 12 11 8 7 4 3 7 5 4 2 2 5 3
12 12 11 13 14 10 8 14 16 13 10 13 16 17 17 16 17 18 18 15 17 16 15 13 11 10 8 8 17 15 13 12 5 5 7 9 7 6 1 2 2 3 3
12 12 12 13 14 10 11 14 10 8 11 12 11 12 14 15 14 12 14 15 15 14 13 12 11 10 9 8 8 7 7 10 6 7 6 4 3 3 3 0 2 2 2
11 9 12 15 10 6 7 8 7 6 10 9 9 9 9 11 11 9 10 11 12 15 15 12 12 12 10 9 13 11 8 7 7 6 2 2 2 1 1 1 2 2 2
12 12 12 9 6 4 3 4 7 5 9 11 9 9 9 9 9 9 9 14 16 19 18 20 14 7 13 21 20 17 14 14 14 2 2 2 2 3 3 1 1 2 2
Wind_Direction
232 222 219 218 215 205 203 199 195 199 184 188 193 198 206 202 208 207 200 200 196 191 189 179 164 157 162 168 152 122 122 79 130 102 39 25 346 34 68 101 89 61 59
226 231 227 216 213 207 202 199 201 194 196 194 198 202 200 208 203 198 203 204 194 191 187 173 173 168 148 156 161 151 127 109 120 136 85 187 312 322 340 40 66 52 30
265 234 209 219 209 212 200 200 200 198 197 197 187 140 124 113 180 201 204 202 191 189 186 174 167 169 162 171 171 166 150 145 136 183 149 119 223 334 322 247 19 40 24
265 257 228 199 214 217 214 207 203 199 198 189 189 190 197 202 209 203 198 190 188 187 179 173 169 171 166 164 168 163 157 132 158 124 80 81 137 174 318 326 346 5 22
271 272 247 222 209 233 218 208 203 201 197 195 195 193 202 210 197 196 190 186 180 181 177 176 169 169 166 163 158 157 155 151 144 144 145 95 61 83 129 269 307 291 253
285 286 286 289 219 216 220 215 214 210 198 196 197 196 200 197 189 188 184 189 184 182 182 177 178 176 160 162 158 149 152 147 130 136 137 146 154 175 145 226 306 306 268
292 289 286 294 282 218 214 205 200 209 204 201 200 200 200 196 192 186 190 181 180 191 190 179 174 178 157 153 146 145 146 147 142 146 140 119 117 123 118 129 238 279 316
307 289 294 281 261 233 219 210 209 217 206 204 208 203 197 196 192 189 192 196 189 184 170 170 169 171 157 151 144 139 137 145 141 139 136 132 131 128 137 153 145 278 281
297 293 314 317 310 306 253 222 214 219 208 205 203 203 195 191 190 179 189 192 183 170 175 165 168 169 162 154 147 144 136 133 127 129 127 120 96 91 92 97 135 162 249
317 306 302 303 298 298 292 248 226 219 211 205 200 202 199 186 181 173 175 181 173 170 169 168 170 165 159 148 138 134 127 122 115 124 118 95 98 91 85 91 89 82 164
309 304 298 296 292 296 295 278 237 221 211 201 200 198 198 184 174 177 179 181 178 176 176 173 165 163 159 155 140 136 132 126 122 112 104 102 108 99 94 97 97 96 140
308 305 303 302 295 297 302 286 244 216 206 198 193 195 188 181 176 181 182 178 181 180 177 173 166 160 150 147 136 136 132 128 123 115 107 98 118 93 105 101 107 128 163
309 310 308 308 307 300 302 278 238 219 205 190 185 180 184 181 183 184 180 173 173 174 166 152 137 116 87 83 77 105 112 117 120 120 105 115 116 142 121 100 99 96 3
308 306 306 308 309 304 290 295 268 223 199 192 184 180 186 183 182 175 171 163 163 158 147 139 139 136 134 131 112 94 96 94 97 99 103 119 149 158 131 113 153 160 321
314 318 315 310 311 299 286 283 281 231 213 198 189 189 170 178 174 168 157 152 152 150 142 133 126 123 119 128 128 130 128 124 114 102 107 152 166 147 140 144 206 224 305
315 324 323 325 328 307 281 258 242 254 204 190 190 163 175 169 165 158 150 149 144 142 141 140 135 138 133 124 118 124 128 115 117 133 161 147 153 127 122 130 166 262 253
311 312 315 313 318 319 300 251 235 194 207 205 175 182 176 169 161 153 151 150 150 145 145 142 137 130 134 132 131 119 113 132 142 157 145 156 131 132 125 39 340 314 309
316 318 314 312 309 305 303 258 215 204 201 204 202 182 178 166 157 155 156 150 150 147 144 139 132 131 137 129 126 122 127 137 130 158 153 163 161 170 147 301 286 303 291
291 298 303 304 303 302 307 296 216 203 196 198 196 188 178 167 159 158 157 155 148 146 146 141 140 137 142 135 136 126 133 136 148 127 163 163 168 189 214 213 269 291 301
285 298 303 299 300 304 315 319 257 205 208 201 198 189 179 170 166 156 155 154 150 145 142 138 138 140 141 143 136 137 141 153 140 132 164 164 170 215 213 223 215 276 284
279 290 297 292 303 307 306 311 289 239 231 201 180 173 172 173 162 157 154 153 148 144 142 138 139 137 140 143 143 145 153 161 148 164 168 170 189 213 214 212 217 239 279
281 281 285 294 301 301 302 306 293 252 227 189 170 170 167 167 162 158 157 155 150 145 145 142 142 144 142 147 145 140 139 153 165 164 149 171 198 173 157 132 347 26 41
270 276 270 283 293 308 314 294 295 234 183 171 175 168 162 161 163 161 159 155 153 150 150 147 138 132 129 138 140 138 147 167 153 138 162 180 196 158 122 66 44 35 36
275 278 271 273 285 310 315 288 312 149 163 164 158 160 155 154 159 161 161 157 154 150 147 142 137 137 142 144 142 142 162 172 138 148 170 170 163 182 200 182 5 23 39
274 262 256 268 267 299 306 314 14 134 128 127 134 134 138 143 145 150 157 155 153 147 139 144 150 152 153 161 150 164 167 161 151 140 136 135 129 166 231 296 1 341 20
276 274 257 245 244 246 273 27 47 38 124 125 130 139 136 130 125 118 93 74 114 119 127 142 141 135 136 145 149 163 164 159 153 127 148 144 167 189 198 173 333 320 358